indice_tiempo,remuneracion_media_real_todos_los_trabajos,remuneracion_media_real_ocupados
2012-03-01,2784.0,2707.0
2012-04-01,2780.0,2719.0
2012-05-01,2786.0,2712.0
2012-06-01,2799.0,2718.0
2012-07-01,2811.0,2731.0
2012-08-01,2810.0,2740.0
2012-09-01,2812.0,2732.0
2012-10-01,2808.0,2728.0
2012-11-01,2832.0,2726.0
2012-12-01,2972.0,2721.0
2013-01-01,2986.0,2733.0
2013-02-01,2969.0,2750.0
2013-03-01,2839.0,2770.0
2013-04-01,2842.0,2777.0
2013-05-01,2868.0,2779.0
2013-06-01,2890.0,2801.0
2013-07-01,2907.0,2820.0
2013-08-01,2906.0,2839.0
2013-09-01,2919.0,2840.0
2013-10-01,2913.0,2849.0
2013-11-01,2918.0,2838.0
2013-12-01,3021.0,2817.0
2014-01-01,3047.0,2814.0
2014-02-01,3061.0,2841.0
2014-03-01,2955.0,2875.0
2014-04-01,2949.0,2873.0
2014-05-01,2930.0,2870.0
2014-06-01,2917.0,2854.0
2014-07-01,2935.0,2848.0
2014-08-01,2939.0,2866.0
2014-09-01,2953.0,2876.0
2014-10-01,2934.0,2888.0
2014-11-01,2957.0,2869.0
2014-12-01,3070.0,2870.0
2015-01-01,3069.0,2875.0
2015-02-01,3047.0,2869.0
2015-03-01,2933.0,2870.0
2015-04-01,2915.0,2861.0
2015-05-01,2926.0,2849.0
2015-06-01,2908.0,2855.0
2015-07-01,2889.0,2837.0
2015-08-01,2880.0,2823.0
2015-09-01,2874.0,2819.0
2015-10-01,2872.0,2806.0
2015-11-01,2967.0,2791.0
2015-12-01,3249.0,2781.0
2016-01-01,3245.0,2793.0
2016-02-01,3161.0,2776.0
2016-03-01,2878.0,2785.0
2016-04-01,2871.0,2772.0
2016-05-01,2842.0,2780.0
2016-06-01,2848.0,2752.0
2016-07-01,2874.0,2755.0
2016-08-01,2865.0,2778.0
2016-09-01,2858.0,2776.0
2016-10-01,2855.0,2781.0
2016-11-01,2966.0,2784.0
2016-12-01,3242.0,2794.0
2017-01-01,3270.0,2807.0
2017-02-01,3200.0,2818.0
2017-03-01,2924.0,2831.0
2017-04-01,2901.0,2813.0
2017-05-01,2881.0,2804.0
2017-06-01,2892.0,2797.0
2017-07-01,2900.0,2798.0
2017-08-01,2913.0,2794.0
2017-09-01,2912.0,2807.0
2017-10-01,2913.0,2814.0
2017-11-01,3014.0,2825.0
2017-12-01,3292.0,2823.0
2018-01-01,3320.0,2837.0
2018-02-01,3224.0,2845.0
2018-03-01,2965.0,2851.0
2018-04-01,2955.0,2856.0
2018-05-01,2951.0,2860.0
2018-06-01,2950.0,2850.0
2018-07-01,2968.0,2843.0
2018-08-01,2953.0,2854.0
2018-09-01,2944.0,2846.0
2018-10-01,2934.0,2846.0
2018-11-01,3051.0,2846.0
2018-12-01,3351.0,2862.0
2019-01-01,3377.0,2880.0
2019-02-01,3270.0,2891.0
2019-03-01,2975.0,2880.0
2019-04-01,2941.0,2865.0
2019-05-01,2944.0,2843.0
2019-06-01,2946.0,2841.0
2019-07-01,2972.0,2833.0
2019-08-01,2960.0,2845.0
2019-09-01,2970.0,2848.0
2019-10-01,2976.0,2867.0
2019-11-01,3085.0,2878.0
2019-12-01,3372.0,2869.0
2020-01-01,3385.0,2878.0
2020-02-01,3294.0,2885.0
2020-03-01,3022.0,2911.0
2020-04-01,2952.0,2946.0
2020-05-01,2903.0,2998.0
2020-06-01,2906.0,3043.0
2020-07-01,2951.0,3079.0
2020-08-01,3013.0,3076.0
2020-09-01,3002.0,3078.0
2020-10-01,3007.0,3034.0
2020-11-01,3052.0,3003.0
2020-12-01,3281.0,2961.0
2021-01-01,3271.0,2945.0
2021-02-01,3210.0,2916.0
2021-03-01,2969.0,2927.0
2021-04-01,2963.0,2891.0
2021-05-01,2932.0,2883.0
2021-06-01,2914.0,2837.0
2021-07-01,2883.0,2819.0
2021-08-01,2829.0,2779.0
2021-09-01,2782.0,2729.0
2021-10-01,2744.0,2690.0
2021-11-01,2794.0,2659.0
2021-12-01,3044.0,2638.0
2022-01-01,3056.0,2665.0
2022-02-01,3011.0,2672.0
2022-03-01,2782.0,2686.0
2022-04-01,2793.0,2676.0
2022-05-01,2815.0,2686.0
2022-06-01,2848.0,2703.0
2022-07-01,2875.0,2734.0
2022-08-01,2900.0,2760.0
2022-09-01,2917.0,2797.0
2022-10-01,2941.0,2820.0
2022-11-01,3055.0,2849.0
2022-12-01,3298.0,2854.0
2023-01-01,3312.0,2867.0
2023-02-01,3226.0,2868.0
2023-03-01,3005.0,2877.0
2023-04-01,2981.0,2864.0
2023-05-01,2978.0,2860.0
2023-06-01,2984.0,2872.0
2023-07-01,3008.0,2888.0
2023-08-01,3040.0,2895.0
2023-09-01,3034.0,2925.0
2023-10-01,3045.0,2935.0
2023-11-01,3134.0,2960.0
2023-12-01,,2947.0
